Wind_Speed
12 10 8 6 4 4 3 3 3 4 3 2 0 1 2 3 4 5 6 7 8 9 10 11 12 12 12 13 13 13 13 13 13 13 13 13 12 12 13 13 13 14 15 14 13 11 9 8 8 7 5 2 2 4 5 7 8 8 7 5 5 4 4 3 4 10 10 9 9 6 5 3 3 3 3 4 3 2 3 4 4 4 4 5 5 7 7 5
12 9 7 5 4 4 3 3 3 3 3 2 1 1 2 3 4 5 6 7 9 10 11 12 12 12 13 13 13 13 13 13 13 13 12 12 12 12 12 12 12 13 13 13 13 11 10 9 9 7 6 3 1 3 4 6 7 8 7 6 5 4 5 3 4 9 9 9 10 7 6 4 3 4 4 5 3 2 2 3 3 4 4 4 5 6 8 6
11 9 6 5 4 4 3 3 3 2 2 2 2 2 3 4 4 5 7 8 10 11 13 13 13 13 13 13 13 13 12 12 12 12 12 12 11 11 11 11 11 11 12 12 13 12 10 9 9 8 6 4 1 2 3 5 6 7 6 6 6 6 6 4 4 7 9 9 10 8 7 5 4 5 5 5 4 2 1 2 3 4 4 4 4 5 7 7
10 8 6 5 5 4 3 2 2 2 2 2 2 2 3 4 5 6 8 10 11 13 14 14 14 13 13 13 13 12 12 12 12 12 13 12 11 11 11 10 10 10 11 11 12 12 11 9 8 8 6 5 3 0 2 3 4 5 6 7 7 7 7 6 5 6 9 10 10 9 7 7 6 5 5 5 5 3 2 3 3 3 3 3 4 4 6 7
9 7 7 6 5 4 3 2 2 3 3 2 2 3 4 5 7 9 10 12 13 14 14 15 14 13 12 12 13 13 12 12 13 12 13 13 12 11 10 10 9 9 10 10 11 11 10 9 8 7 6 6 5 3 0 1 3 5 7 8 8 8 8 8 6 6 8 10 10 9 8 7 6 5 6 6 5 4 4 4 3 3 3 3 4 4 5 7
8 8 7 6 5 3 3 3 3 3 3 3 3 4 5 7 9 11 13 14 14 14 14 14 14 13 12 11 12 14 13 13 13 13 13 13 13 11 10 9 9 9 9 9 10 10 10 9 9 7 8 7 7 5 2 1 2 4 7 9 9 9 8 8 8 7 8 10 11 10 9 8 6 6 7 6 6 5 4 5 4 3 3 3 4 4 4 5
9 8 7 6 5 4 4 4 4 4 4 4 5 6 8 10 12 14 15 15 14 13 13 13 13 13 13 12 13 14 14 14 14 14 13 14 14 12 10 9 9 8 8 8 8 9 9 8 7 6 7 8 8 7 4 2 1 2 5 7 8 9 9 9 8 8 9 10 10 10 10 9 8 7 7 6 6 5 4 5 6 5 3 4 4 3 3 4
9 8 7 6 5 5 5 4 4 4 5 6 7 8 10 12 14 15 15 15 14 13 13 13 13 14 14 14 13 13 14 14 14 13 13 13 14 13 11 10 9 9 8 7 7 7 7 6 6 5 5 6 7 7 6 3 2 1 3 5 7 8 9 10 9 9 10 10 10 10 10 10 9 8 8 8 7 6 5 5 6 6 5 4 4 3 3 4
9 8 7 6 5 5 5 5 5 6 7 8 9 11 12 14 15 15 15 15 14 14 14 13 14 14 14 13 13 12 12 13 14 13 13 12 13 14 13 11 9 9 8 7 7 6 6 6 5 5 4 5 6 7 7 5 3 2 1 3 5 6 8 9 9 9 10 10 11 11 10 11 11 10 9 9 8 8 7 6 6 8 6 5 5 4 3 4
8 7 7 6 6 6 6 6 7 8 9 10 12 13 14 14 15 15 15 15 15 14 13 12 11 11 11 11 11 11 11 12 13 13 12 12 12 13 14 13 10 9 8 7 7 6 6 6 6 6 5 4 5 6 7 6 4 3 1 2 4 5 6 8 9 9 10 11 11 11 10 10 11 11 10 9 9 8 7 6 7 8 8 6 6 5 4 4
8 7 7 7 6 7 7 8 9 10 11 12 14 14 14 14 15 15 15 13 12 11 10 9 9 9 9 9 9 10 11 11 13 13 12 12 13 12 14 14 12 11 10 8 7 7 6 6 6 5 4 4 5 6 8 8 4 3 2 3 4 4 5 7 8 9 10 11 12 12 10 10 11 12 11 9 9 9 8 7 8 8 8 8 7 6 5 5
8 7 7 7 7 8 9 10 11 12 13 14 14 14 14 15 14 13 11 9 9 8 8 8 8 7 7 7 8 9 10 11 12 13 12 12 13 13 13 15 14 12 11 10 9 8 7 6 6 5 4 3 4 5 8 8 4 3 3 4 5 5 5 6 7 9 11 11 12 12 11 11 13 13 11 10 10 10 9 8 8 8 9 9 8 8 7 7
7 7 7 8 8 9 11 12 13 13 13 13 14 14 14 13 11 9 8 7 7 7 7 8 7 7 6 7 7 8 10 11 12 13 13 13 14 14 14 15 15 13 12 12 11 11 8 7 7 6 5 5 5 6 8 8 5 3 4 4 5 6 5 6 6 8 11 12 12 12 12 13 14 13 12 11 10 10 10 10 9 8 9 9 8 8 8 8
7 8 8 9 10 11 12 13 13 13 13 14 13 12 10 9 7 6 6 7 7 7 7 8 8 7 7 7 8 9 10 12 13 13 14 14 15 15 16 16 17 14 14 13 13 13 11 8 8 7 7 8 7 6 9 10 8 6 5 5 6 6 6 6 6 7 10 12 13 14 13 13 13 14 14 13 11 10 10 11 10 9 8 8 8 9 9 8
8 9 10 11 12 12 12 13 13 13 13 11 9 7 7 6 6 6 6 6 7 7 8 9 9 8 8 8 9 10 11 12 13 14 15 15 15 16 17 18 18 16 15 14 14 14 13 11 9 9 10 10 8 8 10 12 10 8 7 7 6 6 7 7 6 7 8 11 13 14 14 12 13 15 15 13 12 11 11 11 10 9 9 8 9 9 9 9
9 10 11 12 12 12 13 13 13 12 9 7 5 5 5 5 5 5 5 5 6 7 8 9 9 9 9 10 10 11 12 13 13 14 15 15 15 16 17 18 19 18 17 16 15 15 15 13 11 10 11 11 10 10 11 11 10 9 8 7 7 7 8 7 7 6 7 9 11 14 13 12 14 15 15 14 14 13 12 11 11 10 9 9 9 9 9 10
11 12 13 13 13 13 14 13 11 8 6 5 5 5 4 4 4 4 4 5 6 7 8 9 10 10 11 10 11 11 12 13 13 14 14 15 15 16 17 18 19 19 19 17 16 15 16 15 13 12 12 13 12 12 11 10 10 10 8 6 8 8 9 9 7 6 6 7 9 12 13 14 15 15 15 15 14 14 14 12 12 11 10 10 10 10 10 11
12 13 13 13 13 14 13 10 7 6 5 5 5 4 3 3 3 3 4 6 7 8 9 10 11 12 12 12 12 13 13 14 14 14 15 16 16 16 17 17 18 19 19 18 17 17 17 16 15 13 13 15 15 14 13 11 10 10 9 8 9 10 10 10 8 7 6 6 7 9 12 13 14 15 15 15 14 15 15 15 13 11 10 11 11 11 11 11
13 13 14 14 13 12 9 7 6 6 5 5 4 2 1 2 3 4 5 6 7 8 9 10 12 13 13 14 14 14 15 15 15 16 16 16 16 16 16 16 17 18 19 19 18 19 19 17 15 14 15 18 18 17 15 12 12 11 10 9 10 12 11 10 9 7 5 4 5 6 9 11 13 15 15 15 15 15 16 15 14 12 11 11 12 11 12 12
13 13 14 14 11 8 7 7 7 6 5 5 4 1 1 2 3 4 5 6 8 9 10 11 12 14 15 15 15 15 16 17 17 17 16 16 15 15 15 14 16 17 19 19 19 20 19 16 14 14 18 21 20 19 16 13 13 13 12 11 11 12 11 10 9 7 6 4 4 5 7 9 11 14 15 16 16 16 16 15 15 14 13 13 13 13 13 13
13 13 14 11 8 8 8 7 7 6 5 5 3 2 1 2 3 4 6 7 9 10 11 12 13 15 15 16 16 17 18 18 19 18 17 16 15 15 14 13 14 16 17 18 19 20 18 14 13 17 22 23 22 21 17 15 14 14 13 13 12 13 12 11 9 8 6 5 4 5 6 7 9 10 13 15 17 18 17 16 16 15 14 15 14 14 14 12
13 13 11 8 9 9 8 7 7 6 5 4 3 2 1 3 4 5 7 8 9 11 12 13 14 15 15 16 17 18 20 21 20 19 17 16 15 15 15 14 14 14 16 17 17 18 17 13 14 20 23 23 22 21 19 17 16 15 15 14 13 13 13 13 11 9 8 7 6 7 8 8 8 8 9 12 16 19 19 19 17 15 14 14 15 16 16 13
12 11 9 9 10 9 8 8 7 6 5 4 3 2 2 4 5 6 8 9 10 11 12 13 13 14 15 16 17 19 21 21 20 18 17 17 16 15 14 14 13 13 14 15 16 16 15 15 20 24 25 23 22 22 21 19 17 17 17 15 13 13 14 14 13 12 10 9 8 8 9 9 8 8 8 9 12 16 19 19 19 17 15 14 16 18 17 14
11 10 9 10 10 9 8 8 7 6 5 4 3 3 3 4 6 7 8 10 10 11 13 13 13 14 14 16 17 19 20 21 20 19 19 18 17 16 15 13 11 11 11 12 13 13 14 20 24 25 24 22 22 23 22 21 20 20 17 15 14 14 15 16 14 13 11 10 10 10 9 9 9 8 8 8 10 12 16 18 19 18 17 17 17 18 17 15
10 10 10 10 9 9 9 8 7 6 5 4 4 3 3 4 6 8 9 10 11 12 13 14 14 14 14 16 18 19 19 20 21 21 20 19 19 18 16 14 11 9 8 9 10 10 15 21 23 24 23 22 23 23 22 22 22 21 17 15 16 16 17 17 15 14 12 11 12 10 9 9 9 9 9 8 8 9 11 14 16 17 18 18 18 18 18 18
11 11 10 10 9 9 9 8 7 6 5 4 4 4 4 5 7 9 10 10 11 12 13 14 16 15 15 17 18 19 19 20 21 21 20 19 19 19 17 15 12 9 7 7 7 10 15 18 19 21 23 23 22 21 21 22 23 21 16 15 17 18 18 17 15 14 13 12 13 11 10 9 9 9 10 9 7 7 8 11 12 13 15 17 18 19 20 20
12 11 10 9 9 9 9 8 7 6 4 3 3 4 6 7 8 10 10 11 13 13 14 15 16 16 16 17 18 18 18 19 21 21 21 20 18 18 18 17 15 12 9 7 8 9 12 15 17 20 23 23 21 18 20 22 22 18 15 16 18 18 18 17 16 15 14 15 15 13 11 10 9 10 10 10 8 6 7 10 11 12 13 15 18 20 20 20
12 11 10 9 10 10 10 9 7 6 4 3 3 5 6 7 9 10 11 12 13 13 14 15 16 16 16 17 17 17 18 19 21 22 22 22 20 19 18 18 17 13 10 10 10 9 9 12 17 20 21 21 19 18 21 23 21 16 16 19 19 19 19 17 17 16 16 17 17 15 14 12 9 10 11 10 9 8 7 9 10 12 13 14 17 19 20 21
11 10 10 11 11 11 10 8 7 5 4 3 4 5 6 7 9 10 11 12 12 12 14 16 17 17 17 18 18 18 18 19 21 22 23 23 23 22 21 19 17 13 9 9 11 11 10 12 15 17 17 17 17 19 23 23 21 18 20 21 20 20 20 18 18 18 18 20 19 16 17 15 10 10 12 10 9 9 9 9 10 12 13 13 16 18 19 21
11 11 11 12 12 11 10 8 7 5 4 4 5 6 7 8 9 10 11 12 12 13 13 16 17 18 18 19 18 18 19 19 21 22 23 24 24 24 24 22 20 15 10 7 8 10 11 12 13 14 14 15 17 20 24 23 21 21 21 21 21 21 21 21 19 18 20 21 18 16 18 18 12 11 13 11 10 11 10 10 10 11 12 13 15 18 19 20
11 12 13 13 12 11 10 8 6 5 4 5 5 7 7 8 9 10 11 11 12 13 13 15 16 17 19 19 19 19 20 20 21 22 23 24 24 25 25 24 21 18 13 8 6 7 10 13 13 13 14 16 18 20 24 25 22 22 21 21 21 21 22 22 20 20 23 20 15 14 18 18 11 9 13 13 12 12 12 12 12 11 11 12 14 17 19 20
12 13 14 14 12 11 9 7 6 5 5 5 6 7 7 8 9 10 10 11 12 13 14 15 16 18 19 19 19 20 20 21 21 22 23 24 24 25 25 23 21 19 15 9 5 6 9 12 14 15 16 18 18 20 25 27 25 24 23 23 23 21 22 22 20 21 23 19 14 13 18 17 8 9 12 13 12 13 12 13 12 11 10 10 11 15 17 19
14 15 15 14 12 10 8 7 6 5 6 7 7 8 8 8 9 10 11 12 13 13 15 16 17 18 20 20 20 20 20 21 22 23 23 24 25 25 26 24 22 19 15 10 6 4 7 10 13 16 19 19 19 21 25 28 28 26 24 24 24 22 21 22 21 22 21 18 14 14 18 15 9 10 12 13 14 14 13 12 11 9 9 8 9 11 14 17
16 16 15 13 12 10 8 6 5 6 7 7 8 8 8 9 10 10 11 13 13 14 15 16 17 18 20 21 21 21 21 21 22 23 23 24 25 25 26 25 24 21 15 11 8 3 4 8 10 15 20 21 20 22 26 29 30 28 26 25 25 24 23 22 22 23 20 16 15 17 18 13 12 11 12 14 16 16 14 13 10 6 6 6 6 8 11 14
17 17 15 13 11 10 8 6 5 6 7 8 9 9 9 10 10 11 12 14 14 15 16 17 18 18 19 21 22 22 22 22 22 23 23 24 25 25 26 25 26 24 18 13 10 6 5 6 9 13 18 21 22 23 27 30 31 29 28 27 26 27 27 25 24 23 21 17 16 19 19 14 13 12 11 13 16 16 15 14 9 4 6 6 5 6 9 12
18 17 15 13 11 10 8 7 6 7 8 9 9 10 10 11 11 11 13 14 15 15 16 17 18 18 19 20 22 22 23 23 23 23 24 25 24 25 26 26 26 26 22 15 12 10 7 8 10 12 16 20 23 25 28 30 31 31 30 28 28 29 29 29 27 24 23 20 17 19 18 13 12 12 11 12 14 14 15 14 8 5 7 8 7 6 8 11
18 17 15 13 12 10 9 7 7 8 9 9 10 11 11 11 12 12 13 14 15 15 16 17 18 18 20 21 22 23 23 23 23 24 25 25 25 25 27 27 26 26 25 19 15 13 10 11 13 13 15 19 22 25 28 30 32 32 32 30 31 31 31 32 29 26 26 23 20 19 17 13 12 13 11 12 12 13 15 14 8 5 8 9 8 8 8 10
19 17 15 13 11 10 8 7 7 8 9 10 10 11 11 12 13 13 13 13 15 16 17 18 18 18 20 21 21 22 23 23 23 24 25 26 25 26 27 26 25 26 25 22 18 17 14 14 15 14 15 19 22 24 27 31 32 33 34 33 32 32 32 33 32 29 28 26 23 21 17 15 15 13 10 10 11 12 14 13 8 8 10 8 7 8 9 10
19 18 15 13 11 10 9 8 8 8 9 10 10 11 12 13 14 14 13 13 14 16 17 18 18 18 19 20 21 22 22 22 23 24 25 25 25 26 26 25 24 24 24 23 20 19 17 17 17 15 16 19 23 25 27 30 32 32 34 34 34 33 33 33 33 31 29 28 26 24 20 16 15 13 10 9 10 11 13 12 12 13 11 7 6 7 9 10
20 18 15 13 11 10 9 9 8 9 10 10 10 11 12 13 14 14 13 13 14 16 17 18 18 18 19 19 20 21 21 22 23 24 24 25 25 26 25 24 23 22 23 23 22 20 20 20 19 18 17 18 22 26 28 30 32 32 32 32 32 32 33 34 33 30 29 29 28 26 22 17 15 13 10 9 10 11 13 15 16 15 10 7 6 5 7 9
20 17 14 12 11 10 10 9 9 10 11 10 10 12 13 13 14 14 14 15 15 17 18 18 18 18 19 20 21 22 22 22 23 23 23 24 24 25 25 24 24 23 22 23 23 22 21 21 21 20 19 20 22 25 27 31 33 33 32 31 30 29 29 31 32 31 30 30 29 27 23 17 14 13 10 8 11 13 15 17 18 14 10 7 6 5 5 8
19 17 14 13 12 11 11 10 11 12 11 10 11 13 14 14 15 15 15 16 17 17 17 18 18 18 19 21 22 23 23 24 24 24 24 24 25 25 25 25 25 24 23 23 23 23 23 22 22 21 20 21 23 24 27 32 35 36 34 32 31 29 26 26 30 31 30 30 30 28 23 17 13 13 9 8 11 13 15 17 16 13 10 8 6 5 5 6
19 17 15 14 13 13 13 12 12 12 11 11 11 13 14 15 15 16 17 18 18 17 18 17 18 18 19 21 22 23 24 25 25 26 27 27 27 27 26 26 25 24 23 22 22 23 24 23 23 22 23 23 23 23 27 32 36 37 36 34 33 31 28 25 27 30 29 28 28 27 23 17 14 12 10 11 13 14 14 15 15 13 10 8 6 5 5 5
18 16 15 14 14 14 13 12 12 11 11 11 11 12 14 15 16 18 19 19 19 18 18 18 18 19 20 21 22 24 25 26 26 27 29 29 29 28 27 26 25 23 21 20 21 22 24 24 23 23 24 25 24 24 25 30 35 36 36 36 34 33 31 29 27 29 28 25 26 26 23 18 15 14 13 14 16 17 16 14 14 13 10 8 7 6 5 5
17 16 15 14 15 14 12 12 12 12 12 12 11 11 14 15 16 18 20 20 19 19 19 19 19 20 21 22 23 24 25 27 28 28 29 30 30 29 27 26 25 23 20 18 20 21 23 24 23 23 24 24 25 25 25 28 32 34 34 34 34 33 32 31 31 30 29 26 26 26 23 19 17 17 17 16 18 20 17 13 12 12 10 8 7 7 6 5
16 15 15 15 15 14 13 12 13 13 13 12 11 12 14 15 16 18 19 18 18 19 19 19 19 20 21 22 23 24 25 27 28 29 30 30 30 29 27 25 23 22 20 19 19 21 22 23 22 22 23 23 23 25 26 28 30 32 32 31 32 32 32 32 33 32 30 28 25 23 22 20 19 20 18 16 17 19 16 11 11 11 10 9 7 6 5 5
17 15 15 15 15 14 14 13 13 13 12 12 12 13 15 15 16 17 18 18 18 19 19 18 18 19 21 22 23 24 26 27 29 30 30 30 30 28 26 23 21 20 20 19 20 21 22 23 22 21 22 21 22 24 26 27 29 31 32 29 27 28 30 32 34 34 32 29 23 20 21 21 22 23 17 13 17 20 15 10 9 9 9 9 7 6 7 6
18 17 15 15 14 15 15 15 14 14 13 13 13 14 15 17 16 16 17 18 19 21 19 18 19 20 21 22 23 25 26 27 29 30 30 30 29 26 24 23 21 19 18 18 20 21 22 22 22 21 21 21 21 23 25 26 28 30 32 29 26 26 29 30 32 34 32 28 23 20 19 21 23 24 19 16 19 19 13 8 8 9 10 9 8 9 10 9
17 17 15 15 15 15 16 16 17 16 15 15 14 15 17 18 16 15 16 18 20 21 20 20 20 21 21 23 24 25 26 27 29 30 30 30 29 24 21 21 21 19 17 16 18 21 21 22 21 20 20 20 20 22 23 24 27 29 31 30 27 27 31 31 30 31 29 25 24 21 18 19 23 25 23 21 18 14 11 9 9 10 11 11 11 11 13 13
16 16 16 16 16 16 17 17 18 18 16 16 16 16 18 19 16 15 15 18 20 20 20 20 21 21 22 23 23 25 26 27 28 30 30 29 27 22 20 20 21 21 19 16 16 18 20 21 21 20 20 20 20 21 22 23 25 28 29 30 28 27 31 34 32 29 26 25 25 23 19 18 23 26 24 20 16 13 11 11 11 12 13 14 13 14 15 15
16 16 16 16 16 17 17 17 17 18 17 17 17 18 19 19 17 16 16 18 19 19 20 21 21 21 22 22 23 25 26 27 28 29 29 27 24 21 20 21 22 22 21 19 17 17 18 19 19 19 20 20 20 20 20 21 24 27 29 29 28 26 29 34 33 28 27 27 27 26 21 18 22 27 25 19 16 15 13 12 12 13 15 15 15 16 17 17
16 16 16 17 17 17 17 17 17 17 18 19 19 19 19 18 17 16 17 18 18 19 20 21 21 22 22 23 24 25 26 27 28 29 28 25 21 20 20 21 22 23 22 21 19 18 19 20 19 18 18 19 20 20 20 19 21 25 27 28 28 26 27 31 31 27 26 28 28 26 23 21 21 25 27 23 19 16 14 13 13 13 14 14 13 14 16 16
Wind_Direction
180 180 184 189 192 191 188 188 188 187 183 177 150 19 10 6 357 353 351 351 351 350 350 349 349 348 349 350 349 350 351 354 355 357 1 5 10 15 19 22 24 25 27 32 33 28 31 55 69 62 56 67 183 195 206 210 212 208 197 186 177 151 137 129 139 160 158 150 163 165 157 158 139 130 126 124 124 129 114 99 100 114 124 127 126 119 121 134
182 183 191 197 194 189 184 181 178 185 194 208 254 328 342 342 341 341 342 342 341 340 339 340 341 340 341 341 341 343 345 348 350 351 354 359 5 10 14 17 19 20 21 24 26 24 22 34 52 49 40 44 159 182 193 204 208 206 199 195 184 154 139 125 138 164 163 155 160 166 166 163 149 140 126 119 127 152 130 109 112 122 136 138 130 124 126 134
183 188 196 197 191 185 181 178 177 187 206 229 269 306 319 324 330 331 332 332 331 331 330 330 331 332 334 335 335 337 340 343 345 345 345 352 358 2 8 11 14 15 13 16 18 20 19 22 40 42 27 27 33 191 188 197 202 201 198 201 192 172 159 134 125 160 168 159 158 166 169 168 169 154 135 126 133 164 166 144 137 129 137 140 134 131 131 136
186 193 196 193 188 186 185 191 205 223 233 249 275 297 307 311 317 320 322 322 323 323 322 322 323 325 328 329 329 332 335 335 338 338 337 341 348 353 360 3 6 9 6 8 13 16 17 13 26 39 24 13 9 340 187 195 199 198 200 206 201 189 177 159 139 154 165 159 159 167 169 174 180 164 150 143 141 163 198 185 154 132 138 150 145 142 138 140
190 195 194 191 190 193 206 228 250 255 251 254 268 285 298 302 307 310 312 314 316 317 317 316 317 319 322 325 325 326 329 328 329 330 329 330 335 343 349 352 357 2 0 2 8 12 18 11 7 24 24 6 358 352 17 187 201 204 210 212 208 199 189 179 168 164 168 163 163 170 174 179 183 172 163 156 151 159 184 191 172 141 147 176 163 151 149 150
194 195 193 194 197 211 237 255 261 258 256 259 266 280 291 298 303 306 308 311 312 313 313 313 314 316 318 320 320 319 321 322 321 322 323 323 325 333 341 343 347 354 354 356 4 7 16 15 1 10 19 3 348 338 352 31 214 211 218 219 215 209 200 192 184 178 183 177 168 170 176 180 186 184 169 159 161 158 172 184 176 158 161 195 177 155 161 162
196 195 195 200 211 233 250 254 254 256 263 269 277 285 293 299 302 305 306 308 310 310 310 310 310 312 313 313 313 313 315 316 315 316 319 319 320 325 333 335 337 343 346 349 359 3 10 16 4 8 17 4 349 333 334 11 348 221 227 226 221 218 211 204 193 182 191 192 176 171 180 184 187 188 174 166 167 157 169 181 175 169 171 198 188 162 174 174
196 197 201 211 228 242 247 248 252 262 274 281 287 291 295 299 301 303 303 305 308 308 307 307 306 307 308 309 310 310 311 311 311 314 317 318 318 320 325 328 330 332 335 341 349 354 359 6 3 360 9 6 355 339 330 340 350 309 249 240 226 222 219 213 204 185 191 202 190 179 185 190 190 188 181 177 173 161 173 187 177 173 177 196 193 175 188 188
197 202 211 225 236 241 245 251 262 273 281 287 291 294 297 299 300 300 302 304 306 306 306 305 304 305 307 310 312 312 310 308 309 313 315 316 316 317 319 321 323 323 324 332 334 338 342 347 351 340 342 355 351 337 323 319 324 325 293 263 239 226 223 218 213 197 191 202 202 194 192 195 195 192 186 184 182 172 175 190 184 174 176 196 197 186 195 199
202 211 222 232 238 244 252 264 275 281 286 290 293 296 297 298 298 299 301 304 306 306 305 303 304 308 313 316 316 313 309 306 307 312 314 313 314 314 313 315 317 315 315 321 322 322 328 333 341 332 325 336 341 328 310 302 309 311 295 271 251 232 225 218 215 208 199 201 204 204 201 201 201 199 194 187 186 183 178 188 190 177 175 193 202 195 199 203
210 219 227 235 244 256 266 275 281 285 288 292 294 295 296 297 298 299 301 303 303 300 299 301 307 314 319 319 315 310 307 305 305 311 315 313 311 309 307 308 310 310 310 313 309 307 314 320 326 329 322 319 326 318 297 290 298 313 292 262 249 232 223 215 210 208 206 204 205 207 205 207 210 208 204 192 187 190 188 190 194 184 177 187 201 201 204 208
216 224 233 245 257 266 274 279 283 286 289 291 293 294 295 297 297 298 300 299 296 295 299 306 311 319 321 315 311 306 303 305 305 308 311 305 301 301 300 300 303 306 306 304 299 297 302 305 307 314 311 294 298 300 286 278 283 307 299 276 257 239 225 219 210 205 206 207 208 207 203 210 217 213 210 204 195 192 191 192 192 191 187 186 197 203 205 211
222 233 245 257 266 273 278 281 285 287 289 290 292 293 294 294 293 294 297 296 297 302 309 314 319 324 321 312 308 304 303 304 304 305 303 300 298 298 295 294 298 300 297 295 292 290 290 287 289 298 293 273 269 277 273 269 270 281 290 284 272 256 237 228 219 211 207 207 209 207 201 209 218 215 213 214 207 196 191 192 189 193 199 193 195 201 205 209
233 246 257 266 272 276 279 282 285 286 288 291 291 290 287 283 286 293 300 303 307 314 320 324 330 331 324 316 311 308 308 307 306 304 301 301 300 297 294 292 294 296 293 290 288 288 288 279 276 283 281 268 257 257 264 270 271 271 279 281 273 262 247 235 226 218 210 207 209 210 206 209 217 215 213 216 215 205 196 195 190 190 202 202 198 200 204 206
247 257 266 271 274 277 280 283 286 288 289 288 282 274 270 276 289 299 304 308 315 324 330 333 336 334 325 321 322 319 316 313 310 306 304 301 297 294 293 290 291 291 289 287 285 286 286 278 270 269 270 265 254 249 259 269 273 275 279 284 279 265 252 239 227 220 213 210 209 212 209 204 211 214 213 216 218 214 206 201 197 192 198 207 204 202 202 201
257 265 272 274 277 280 282 285 287 287 281 268 255 254 264 280 291 297 306 317 326 332 336 335 334 332 327 326 327 324 319 315 311 308 305 302 298 294 290 288 288 288 286 285 285 284 282 276 268 261 261 259 250 246 254 261 267 274 279 287 287 275 260 245 228 221 214 212 211 213 209 196 199 211 213 216 218 219 216 210 208 203 200 206 207 203 201 199
265 272 276 277 280 282 284 285 282 270 246 234 242 253 268 282 289 303 320 329 333 335 335 333 331 330 328 328 328 326 321 317 314 312 307 303 300 292 288 287 286 286 285 283 283 279 274 271 266 258 256 257 252 247 250 253 258 265 269 274 277 273 265 252 235 224 216 212 212 216 216 200 194 207 215 216 217 220 222 219 216 212 205 205 205 202 202 202
272 277 278 278 280 282 281 274 254 227 221 233 246 254 272 282 299 321 331 335 333 332 331 330 330 329 328 329 330 331 327 323 320 317 312 308 302 293 288 285 283 283 281 281 279 273 269 265 263 259 254 253 251 248 246 248 251 255 257 261 267 267 262 254 241 227 221 215 211 218 225 213 198 202 213 215 216 220 224 224 221 217 211 209 206 203 205 207
276 277 277 279 280 277 263 236 215 213 224 237 241 244 269 286 317 331 330 333 330 331 331 329 329 328 328 329 331 333 330 328 327 323 318 312 306 298 290 285 282 280 279 278 273 268 267 265 265 261 251 249 248 247 245 243 245 247 249 255 264 265 259 252 241 228 222 221 218 218 229 228 212 204 208 212 213 218 223 225 222 218 214 212 212 208 207 210
276 275 277 278 271 251 220 208 212 218 228 233 229 206 229 289 326 332 327 329 331 334 332 328 328 327 327 329 331 333 333 333 333 332 329 322 315 306 298 290 283 279 278 276 271 270 271 270 269 257 247 246 245 246 245 240 239 240 243 251 258 258 253 248 242 230 220 218 224 226 230 238 228 212 208 208 209 214 219 224 222 218 214 212 215 215 212 212
274 275 275 267 239 210 203 209 217 220 223 219 201 173 216 297 320 325 327 331 333 333 330 328 327 327 328 329 332 334 335 336 337 339 338 335 330 321 313 303 291 285 281 279 277 275 274 272 266 251 245 245 245 244 242 237 238 239 240 246 251 252 249 246 242 232 221 213 215 226 230 241 241 226 214 208 207 209 213 219 221 217 215 216 218 221 222 216
275 274 264 233 204 201 205 212 218 216 209 200 186 179 245 294 308 316 325 331 331 331 329 328 328 329 331 330 333 336 336 338 339 341 343 343 342 334 326 318 308 300 290 285 280 274 272 265 250 243 242 244 246 246 241 235 238 239 237 240 246 251 250 244 238 232 225 219 218 223 227 236 245 244 227 214 208 207 209 215 218 215 217 223 224 224 226 223
272 261 234 205 200 205 208 214 215 204 192 188 184 198 264 294 306 315 323 327 328 328 329 329 330 332 332 332 336 337 337 338 338 342 347 349 347 342 335 325 318 310 299 291 280 273 268 253 242 241 242 243 244 244 241 237 236 236 236 237 241 245 245 241 236 234 229 224 225 229 232 235 242 250 245 228 215 210 209 213 217 215 216 224 226 224 225 223
260 236 211 202 205 209 213 213 203 189 186 189 198 220 262 296 307 313 319 324 326 329 331 332 333 334 333 335 337 338 339 337 337 344 350 350 349 346 341 331 325 318 308 296 285 275 260 250 247 249 250 247 242 241 240 238 235 236 237 234 231 231 236 237 234 232 231 231 233 234 238 241 244 251 253 244 230 219 212 212 217 218 217 220 222 224 223 221
235 217 207 204 209 213 212 204 191 185 190 201 220 239 268 294 303 307 314 321 325 330 334 334 335 336 336 337 339 340 338 336 338 344 348 348 348 347 343 338 336 331 318 301 290 272 254 253 254 255 254 248 242 241 241 240 237 237 235 229 225 224 231 236 234 232 231 238 243 239 238 244 250 256 259 255 245 233 222 215 216 219 221 222 221 219 219 217
216 211 208 209 213 211 203 193 187 187 195 217 239 262 285 297 303 307 315 323 326 330 334 336 336 337 338 340 341 340 337 337 339 342 345 347 348 347 343 341 343 342 327 297 275 262 256 256 256 255 253 249 245 242 241 241 238 235 226 222 227 227 231 234 233 232 229 236 246 243 238 243 255 261 261 260 250 243 238 224 216 216 221 226 226 222 220 218
210 210 210 213 211 202 193 185 185 188 198 228 257 284 297 303 305 309 319 325 324 328 335 338 337 337 338 339 340 339 338 339 339 339 341 345 346 347 345 343 346 349 337 307 283 274 263 256 252 251 251 251 248 240 236 236 235 229 215 215 225 228 231 229 227 228 227 232 241 246 246 242 249 258 259 260 253 244 242 231 219 215 216 222 228 227 224 221
209 211 213 211 202 193 186 182 184 187 196 224 264 289 299 303 305 310 318 321 320 327 335 337 336 336 337 337 338 338 339 340 339 338 339 342 343 345 345 345 349 353 343 322 310 297 270 251 248 249 251 253 250 235 229 233 233 221 209 214 220 225 228 226 224 225 225 230 236 244 251 244 239 251 255 254 251 240 236 232 221 217 216 215 223 227 226 224
209 211 212 204 194 187 182 182 186 191 204 232 264 283 291 297 303 310 316 317 319 329 336 336 335 335 336 336 336 337 339 341 339 338 338 340 341 342 343 346 352 355 349 330 318 307 284 261 252 252 253 253 247 232 224 229 231 221 216 219 220 224 227 225 225 224 226 232 234 240 251 251 240 243 247 242 238 235 232 232 222 216 218 213 214 218 222 225
209 210 208 200 191 184 182 184 187 196 219 244 267 280 287 296 305 310 313 317 321 329 337 336 334 334 335 335 335 337 339 341 339 338 338 338 339 339 340 343 349 354 355 342 327 311 289 274 263 257 253 246 242 233 223 224 228 224 221 220 222 225 226 225 223 221 228 234 234 239 252 256 249 238 235 225 220 226 227 232 229 219 218 214 209 209 211 220
208 207 204 198 190 185 185 185 188 204 232 249 266 278 285 296 304 307 312 316 319 325 332 334 332 332 333 334 335 337 338 339 339 338 337 336 336 336 337 340 344 348 352 351 345 321 286 270 261 253 247 242 241 234 222 220 224 224 219 220 222 223 224 224 222 224 231 234 232 238 248 254 250 225 220 215 215 222 224 231 235 227 221 216 212 208 206 211
205 204 202 195 189 190 191 191 196 217 240 250 260 271 281 292 300 308 313 315 317 321 326 331 332 331 332 334 335 337 337 338 337 337 336 335 333 333 334 337 339 342 345 343 347 337 296 271 258 249 243 240 240 234 223 220 225 225 220 220 220 218 222 224 224 228 233 234 230 232 247 253 231 194 205 209 214 222 226 235 240 238 233 221 215 215 210 208
203 203 200 193 191 193 195 200 212 233 250 256 262 272 282 293 301 307 312 312 315 319 323 329 332 331 331 333 334 336 336 337 336 336 335 332 332 332 331 332 333 337 339 329 324 340 312 288 262 246 243 242 239 235 227 223 226 226 222 223 220 219 224 226 228 233 235 240 236 233 249 248 197 185 205 209 217 222 225 237 244 248 248 232 220 221 218 213
203 203 198 193 192 193 198 208 224 246 258 262 268 276 285 293 300 307 310 311 315 319 323 328 331 331 330 331 332 334 335 336 335 334 333 330 330 330 329 328 327 331 333 321 309 301 308 302 272 248 246 245 241 237 229 223 225 226 224 224 224 224 227 227 231 237 239 242 236 234 244 230 192 207 222 217 224 226 226 234 238 243 252 242 226 221 219 216
204 203 198 194 193 194 199 210 229 249 260 266 272 279 285 292 300 307 310 312 317 321 323 325 327 328 329 329 330 333 335 334 334 332 329 328 328 327 325 325 323 323 325 319 301 273 258 273 266 254 250 247 242 239 232 224 224 228 226 225 228 229 229 228 230 236 240 235 226 232 241 228 210 226 230 224 229 230 231 234 230 229 241 240 233 223 217 214
206 204 199 196 195 197 202 213 231 250 262 269 274 280 285 291 299 305 309 314 318 320 321 322 323 324 326 328 330 332 333 333 332 330 327 326 326 324 323 323 321 318 319 317 298 274 248 240 252 254 251 249 245 242 238 230 227 231 231 229 231 232 230 230 231 236 240 235 223 231 242 238 227 229 231 232 235 236 237 236 235 237 233 232 231 228 224 216
208 205 201 197 197 201 208 221 236 251 262 269 274 279 285 292 297 302 309 315 318 318 317 317 319 322 324 328 330 331 332 331 330 327 326 325 324 323 322 321 320 316 313 313 300 279 255 245 258 260 250 248 246 243 243 239 233 234 236 235 235 235 233 232 233 236 241 237 227 229 239 241 234 230 231 237 240 240 240 241 242 229 220 222 226 228 229 226
210 208 203 199 201 208 216 230 241 250 261 268 273 279 286 291 295 302 312 317 316 313 311 311 315 319 323 327 330 330 330 329 327 325 324 324 322 321 321 320 318 313 309 308 299 283 264 251 256 258 251 247 245 244 245 245 242 239 240 241 241 240 238 235 233 235 239 239 234 233 236 237 237 234 231 238 243 237 236 238 227 211 211 214 223 234 233 230
212 210 206 203 205 212 221 233 241 249 260 267 274 280 285 289 295 302 309 311 309 306 306 307 311 316 321 326 328 327 326 325 325 324 322 323 321 319 320 317 313 308 305 302 296 284 271 257 249 249 249 245 244 244 245 247 248 247 246 245 245 245 244 240 236 233 234 238 239 240 239 238 236 232 228 239 241 226 223 225 215 211 215 213 225 247 241 231
214 213 211 209 212 218 226 235 241 249 257 263 272 278 281 286 292 297 299 302 302 302 302 303 307 314 320 324 324 323 324 323 324 324 322 322 321 318 317 313 305 300 297 294 289 281 272 263 254 247 245 243 243 243 244 245 248 250 251 250 249 248 247 245 240 234 233 235 239 242 240 235 229 226 226 236 235 217 209 213 214 214 216 219 229 250 248 236
218 218 217 217 220 227 233 240 245 250 254 260 267 274 279 285 290 294 298 300 300 299 299 301 306 314 318 320 321 321 321 323 324 324 322 321 318 315 314 310 302 298 295 290 287 281 271 265 260 252 246 247 247 244 243 243 244 246 250 253 253 251 251 249 241 234 233 232 234 238 236 229 224 224 225 229 229 217 210 217 222 218 216 224 231 245 249 238
222 222 222 222 225 231 236 240 247 252 257 262 268 275 283 289 294 298 300 298 298 299 301 303 307 313 318 319 319 320 321 322 323 323 323 322 320 318 315 309 304 301 298 294 290 285 275 266 261 257 252 251 250 246 243 242 242 242 244 250 254 255 257 250 233 225 227 228 228 233 232 226 224 227 227 223 220 217 218 224 225 218 215 227 240 250 250 236
227 225 223 225 228 232 236 240 248 256 262 266 271 280 288 293 298 300 297 295 297 300 302 305 308 313 317 317 317 318 320 321 323 324 325 324 322 321 316 310 307 303 299 294 288 283 276 269 263 261 258 256 250 244 243 242 242 242 242 244 250 254 256 248 225 216 221 225 227 232 231 225 223 227 230 220 209 209 214 216 214 213 217 233 253 264 262 244
230 229 227 230 234 238 241 247 254 261 262 263 269 280 287 293 297 297 295 296 299 303 305 306 309 313 315 314 315 318 319 322 324 325 325 324 323 322 317 313 309 305 300 293 284 279 275 271 267 264 263 262 255 247 244 243 244 244 242 243 246 249 252 248 233 222 222 223 228 233 231 224 223 228 232 224 207 199 198 198 202 212 223 238 257 274 278 256
232 234 234 237 240 243 247 252 258 261 262 265 273 281 285 289 291 291 293 297 303 307 307 308 311 313 313 313 315 319 320 322 324 325 325 324 323 322 319 315 311 308 303 291 280 276 273 271 269 266 265 264 259 251 245 244 246 247 245 244 246 248 250 249 240 230 224 221 225 231 230 225 226 229 234 236 217 195 183 185 200 213 225 237 255 275 277 252
236 242 244 244 246 247 247 250 254 258 264 272 280 283 284 285 286 287 291 297 302 302 301 306 310 310 310 312 316 318 320 321 323 324 325 324 322 322 320 316 312 310 305 292 279 273 270 270 270 269 268 265 259 253 246 243 245 247 247 247 247 248 250 248 240 231 223 219 221 229 229 225 229 232 235 244 226 193 170 177 202 214 223 230 241 252 246 230
245 250 253 253 253 252 251 252 256 261 269 276 280 281 283 284 284 287 291 296 296 294 297 304 306 306 310 313 316 318 319 321 322 324 326 325 322 323 322 318 314 312 308 296 284 277 272 270 270 272 273 269 260 253 249 245 243 244 247 246 244 246 247 242 234 227 221 217 217 226 227 222 226 229 229 234 218 191 168 174 203 213 219 222 222 212 205 205
252 255 258 258 257 258 260 263 265 268 272 274 276 279 281 281 285 289 293 295 293 294 301 306 306 308 312 315 317 318 320 321 323 325 327 325 324 325 324 321 320 318 311 298 287 280 274 272 271 271 273 271 262 254 250 247 244 242 245 245 243 246 244 234 224 221 219 215 213 220 221 214 218 220 215 211 204 186 165 170 202 210 209 210 206 190 185 194
252 254 256 259 259 261 265 268 270 272 274 276 279 280 281 283 288 291 292 293 294 298 305 307 308 312 315 316 317 318 320 323 324 326 326 325 324 326 324 322 324 323 316 301 287 281 277 274 272 271 272 271 265 256 250 247 244 241 243 244 244 247 243 232 222 217 214 211 211 214 211 207 210 210 208 208 199 177 161 170 192 203 201 199 195 185 186 194
246 248 250 253 256 258 262 267 271 275 279 282 283 282 284 288 292 293 293 294 296 301 305 305 308 312 313 314 317 318 320 324 325 325 325 324 325 326 324 324 325 322 317 305 289 281 277 276 274 273 273 273 270 262 252 245 241 239 240 240 242 245 238 230 225 218 209 208 212 210 206 211 209 202 204 209 194 171 168 177 189 201 200 197 193 188 192 197
241 244 247 250 253 257 260 265 270 275 279 281 281 282 286 290 294 296 296 295 298 302 303 303 307 309 309 312 316 318 321 324 325 326 325 325 326 325 325 326 324 319 314 306 293 281 275 274 273 271 272 274 273 267 259 247 238 237 238 236 237 239 234 229 229 222 208 206 210 206 207 221 215 199 200 207 194 180 182 190 200 207 205 202 198 195 197 200
239 243 246 250 253 257 260 263 267 272 275 278 280 283 286 290 293 294 294 295 299 301 301 303 307 308 310 314 316 319 322 324 326 327 326 326 326 324 324 325 322 317 313 306 296 283 275 272 269 266 268 272 272 269 264 253 239 236 238 236 234 235 234 230 229 221 208 204 206 206 211 226 220 202 197 198 192 188 193 202 211 215 211 211 209 206 206 205
Height
5915 5916 5917 5917 5917 5918 5918 5918 5919 5919 5919 5919 5919 5919 5919 5919 5918 5918 5917 5917 5917 5916 5916 5915 5915 5914 5914 5914 5913 5912 5912 5911 5910 5909 5909 5908 5908 5907 5907 5906 5906 5905 5904 5904 5903 5903 5902 5901 5900 5900 5900 5900 5900 5900 5900 5901 5901 5902 5903 5903 5903 5904 5904 5905 5905 5906 5907 5908 5909 5909 5909 5910 5910 5910 5910 5910 5910 5910 5910 5910 5910 5910 5911 5912 5912 5912 5912 5913
5915 5916 5917 5917 5917 5918 5918 5918 5919 5919 5919 5920 5920 5919 5919 5919 5918 5918 5918 5917 5917 5916 5916 5915 5915 5914 5914 5913 5913 5912 5912 5911 5910 5909 5909 5909 5908 5908 5907 5907 5906 5905 5905 5904 5904 5903 5902 5901 5900 5900 5900 5900 5900 5900 5900 5900 5901 5901 5902 5903 5903 5904 5904 5905 5905 5906 5907 5908 5908 5909 5909 5909 5909 5910 5910 5910 5911 5911 5911 5910 5910 5911 5911 5912 5912 5912 5912 5913
5915 5916 5917 5917 5918 5918 5918 5919 5919 5919 5920 5920 5920 5919 5919 5919 5919 5918 5918 5917 5917 5916 5915 5915 5915 5914 5914 5913 5913 5912 5912 5911 5910 5909 5909 5909 5908 5908 5907 5907 5906 5906 5905 5905 5904 5904 5903 5902 5901 5900 5900 5900 5900 5900 5900 5900 5900 5901 5902 5902 5902 5903 5904 5905 5905 5906 5907 5907 5908 5909 5909 5909 5909 5910 5910 5911 5911 5911 5911 5911 5911 5911 5911 5912 5912 5912 5913 5913
5915 5916 5917 5917 5918 5918 5918 5919 5919 5919 5920 5920 5920 5920 5919 5919 5919 5918 5918 5917 5917 5916 5915 5915 5914 5914 5914 5913 5912 5912 5911 5911 5910 5909 5908 5908 5908 5908 5907 5907 5906 5906 5905 5905 5904 5904 5903 5902 5901 5900 5901 5901 5900 5900 5900 5900 5900 5900 5901 5901 5902 5903 5904 5905 5905 5906 5907 5907 5908 5908 5908 5909 5909 5909 5910 5910 5911 5911 5911 5912 5912 5911 5911 5912 5912 5913 5913 5914
5916 5916 5917 5917 5918 5918 5918 5919 5919 5919 5919 5920 5920 5920 5919 5919 5918 5918 5917 5917 5916 5916 5915 5914 5914 5913 5913 5913 5912 5911 5911 5910 5910 5909 5908 5908 5908 5908 5907 5907 5906 5906 5906 5905 5904 5904 5903 5903 5902 5901 5901 5901 5900 5900 5900 5899 5900 5900 5900 5901 5901 5903 5904 5905 5905 5906 5906 5907 5907 5908 5908 5908 5908 5909 5910 5910 5910 5910 5911 5912 5912 5911 5911 5912 5912 5913 5913 5914
5915 5916 5917 5917 5918 5918 5918 5919 5919 5919 5919 5919 5919 5919 5919 5919 5918 5917 5917 5916 5916 5915 5914 5914 5913 5913 5913 5912 5911 5910 5910 5910 5909 5909 5908 5907 5907 5907 5907 5907 5906 5906 5906 5905 5904 5904 5903 5903 5902 5901 5901 5901 5901 5901 5900 5899 5899 5900 5900 5900 5901 5902 5903 5904 5905 5906 5906 5906 5907 5907 5908 5908 5908 5909 5910 5910 5910 5910 5911 5911 5911 5911 5911 5912 5912 5913 5913 5914
5915 5916 5917 5917 5918 5918 5918 5918 5918 5919 5919 5919 5919 5919 5919 5918 5918 5917 5916 5916 5915 5914 5914 5913 5912 5912 5912 5912 5911 5910 5910 5909 5908 5908 5908 5907 5906 5906 5907 5907 5906 5906 5906 5905 5904 5904 5903 5903 5902 5902 5901 5901 5901 5901 5900 5900 5899 5899 5900 5900 5901 5902 5903 5904 5905 5906 5906 5906 5907 5907 5907 5908 5908 5909 5909 5910 5910 5910 5911 5911 5911 5911 5912 5912 5912 5913 5913 5914
5915 5916 5916 5917 5917 5918 5918 5918 5918 5918 5918 5918 5919 5918 5918 5918 5917 5916 5915 5915 5914 5914 5913 5913 5912 5911 5911 5911 5911 5910 5909 5908 5908 5907 5907 5906 5905 5905 5906 5906 5906 5906 5905 5905 5904 5904 5904 5903 5903 5902 5901 5901 5901 5901 5901 5900 5900 5899 5899 5900 5901 5901 5902 5903 5904 5905 5906 5906 5907 5907 5907 5908 5908 5909 5909 5910 5910 5910 5910 5911 5911 5912 5912 5912 5913 5913 5914 5914
5915 5916 5916 5917 5917 5917 5917 5918 5918 5918 5918 5918 5918 5918 5917 5917 5916 5915 5914 5914 5913 5913 5912 5912 5911 5911 5911 5910 5910 5909 5909 5908 5907 5907 5907 5906 5905 5904 5904 5905 5906 5905 5905 5904 5904 5904 5904 5903 5903 5902 5902 5901 5901 5901 5901 5901 5900 5900 5900 5900 5900 5901 5901 5902 5903 5904 5905 5905 5906 5907 5907 5908 5908 5908 5909 5909 5909 5910 5910 5911 5911 5911 5912 5912 5913 5913 5914 5914
5915 5915 5916 5916 5916 5917 5917 5917 5917 5917 5917 5917 5917 5917 5916 5915 5915 5914 5913 5913 5912 5911 5911 5911 5910 5910 5910 5910 5909 5909 5908 5908 5907 5907 5906 5906 5905 5904 5903 5904 5905 5905 5904 5904 5904 5903 5903 5903 5903 5902 5902 5901 5901 5901 5901 5901 5900 5900 5900 5900 5900 5900 5901 5901 5902 5903 5904 5904 5905 5906 5907 5908 5908 5908 5908 5909 5909 5909 5910 5910 5911 5911 5912 5912 5913 5914 5914 5914
5914 5915 5915 5916 5916 5916 5916 5917 5917 5916 5916 5916 5916 5915 5915 5914 5913 5913 5912 5912 5911 5910 5910 5910 5910 5910 5910 5909 5909 5908 5907 5907 5906 5906 5906 5905 5905 5904 5903 5902 5903 5904 5904 5903 5903 5903 5903 5903 5902 5902 5902 5901 5901 5901 5901 5901 5900 5900 5900 5900 5900 5900 5900 5901 5901 5902 5903 5904 5904 5905 5906 5907 5907 5908 5908 5908 5909 5909 5910 5910 5910 5911 5911 5912 5913 5913 5914 5914
5914 5914 5915 5915 5915 5916 5916 5916 5916 5916 5915 5915 5914 5914 5913 5913 5912 5911 5911 5911 5910 5909 5909 5909 5909 5909 5909 5909 5908 5907 5907 5906 5905 5905 5905 5905 5904 5904 5903 5901 5902 5903 5903 5903 5903 5903 5903 5903 5902 5902 5902 5901 5901 5901 5901 5901 5900 5900 5900 5900 5900 5900 5900 5900 5900 5901 5902 5903 5903 5904 5906 5906 5906 5907 5907 5907 5908 5909 5909 5910 5910 5910 5911 5912 5912 5913 5914 5914
5913 5914 5914 5915 5915 5915 5915 5915 5915 5914 5914 5914 5913 5913 5912 5911 5911 5911 5910 5910 5909 5909 5909 5909 5909 5909 5909 5908 5907 5907 5906 5906 5905 5904 5904 5904 5903 5903 5902 5901 5901 5902 5902 5902 5902 5902 5903 5903 5902 5902 5902 5901 5901 5901 5901 5901 5900 5899 5899 5899 5899 5899 5900 5900 5900 5900 5901 5902 5903 5904 5904 5904 5904 5906 5906 5907 5908 5908 5909 5909 5910 5910 5910 5911 5912 5912 5913 5913
5913 5913 5914 5914 5914 5914 5914 5914 5914 5913 5913 5912 5912 5911 5911 5910 5910 5910 5910 5909 5909 5909 5909 5908 5908 5908 5908 5907 5907 5906 5906 5905 5904 5904 5903 5903 5903 5902 5901 5900 5900 5901 5901 5901 5901 5901 5902 5903 5902 5901 5901 5901 5900 5900 5900 5900 5900 5899 5899 5899 5899 5899 5899 5899 5899 5900 5900 5901 5901 5902 5903 5904 5904 5905 5905 5906 5907 5907 5908 5909 5909 5909 5910 5911 5911 5912 5912 5913
5912 5912 5913 5913 5913 5913 5913 5913 5912 5912 5912 5911 5911 5910 5910 5910 5910 5909 5909 5909 5908 5908 5908 5908 5908 5908 5907 5907 5907 5906 5905 5905 5904 5903 5903 5902 5902 5901 5900 5900 5899 5900 5900 5900 5900 5900 5900 5901 5902 5901 5901 5900 5900 5900 5900 5900 5899 5899 5899 5899 5898 5898 5898 5898 5898 5899 5899 5900 5900 5901 5902 5903 5904 5904 5904 5905 5906 5906 5907 5908 5908 5909 5909 5910 5910 5911 5912 5913
5911 5911 5912 5912 5912 5912 5911 5911 5911 5911 5910 5910 5910 5910 5910 5909 5909 5909 5909 5908 5908 5908 5908 5907 5907 5907 5907 5906 5906 5906 5905 5904 5903 5902 5902 5901 5901 5900 5899 5898 5898 5898 5898 5899 5899 5899 5899 5900 5900 5901 5900 5900 5899 5899 5899 5899 5899 5899 5898 5898 5898 5898 5897 5897 5897 5898 5898 5899 5899 5900 5900 5902 5903 5903 5904 5904 5905 5905 5906 5907 5908 5908 5909 5909 5910 5911 5911 5912
5910 5910 5910 5910 5910 5910 5910 5910 5910 5909 5909 5909 5909 5909 5909 5909 5909 5908 5908 5908 5908 5908 5907 5907 5906 5906 5906 5906 5905 5905 5904 5903 5902 5901 5900 5899 5899 5899 5898 5897 5896 5896 5897 5897 5898 5898 5898 5898 5899 5900 5899 5899 5898 5898 5898 5898 5898 5898 5898 5898 5898 5897 5897 5897 5897 5897 5897 5898 5898 5899 5899 5901 5902 5903 5903 5903 5904 5904 5905 5906 5907 5907 5908 5909 5909 5910 5911 5911
5909 5909 5909 5909 5909 5909 5909 5908 5909 5909 5909 5909 5909 5909 5909 5909 5908 5908 5908 5908 5908 5908 5907 5906 5906 5905 5905 5905 5904 5904 5903 5901 5901 5900 5899 5897 5897 5896 5896 5895 5895 5895 5894 5895 5896 5896 5896 5897 5897 5898 5898 5897 5896 5896 5897 5897 5897 5897 5897 5897 5897 5897 5897 5896 5896 5896 5896 5897 5897 5898 5898 5899 5901 5902 5902 5902 5903 5903 5904 5904 5905 5906 5907 5908 5909 5909 5910 5910
5908 5908 5908 5908 5908 5907 5907 5908 5908 5908 5908 5908 5908 5908 5909 5908 5908 5908 5908 5908 5908 5907 5907 5906 5905 5905 5904 5904 5903 5903 5902 5900 5899 5898 5897 5896 5895 5894 5894 5893 5893 5893 5892 5893 5893 5893 5894 5895 5896 5897 5896 5895 5894 5894 5895 5896 5896 5896 5896 5896 5896 5896 5896 5896 5896 5895 5896 5896 5896 5897 5897 5898 5899 5900 5901 5902 5902 5903 5903 5904 5904 5905 5906 5907 5908 5908 5909 5910
5907 5906 5906 5906 5906 5906 5906 5907 5907 5907 5908 5908 5908 5908 5908 5908 5908 5908 5908 5908 5908 5907 5907 5906 5905 5904 5903 5903 5902 5901 5900 5899 5898 5897 5896 5895 5893 5892 5892 5892 5891 5891 5890 5891 5891 5891 5892 5893 5895 5895 5893 5892 5892 5893 5894 5895 5895 5895 5895 5895 5896 5896 5896 5895 5895 5894 5895 5895 5895 5896 5897 5897 5898 5899 5900 5901 5902 5902 5902 5903 5903 5904 5905 5905 5906 5907 5908 5908
5905 5905 5905 5905 5905 5905 5906 5906 5906 5907 5907 5907 5907 5908 5908 5907 5908 5908 5908 5908 5907 5907 5906 5905 5905 5904 5903 5902 5901 5900 5899 5898 5897 5896 5895 5893 5892 5891 5890 5890 5889 5889 5889 5888 5889 5889 5890 5892 5893 5891 5889 5889 5890 5891 5893 5893 5893 5894 5894 5894 5895 5895 5895 5895 5894 5894 5894 5894 5894 5895 5895 5896 5896 5897 5899 5900 5901 5901 5902 5902 5902 5903 5904 5905 5905 5905 5905 5907
5903 5903 5903 5904 5904 5905 5905 5905 5906 5906 5907 5907 5907 5907 5907 5907 5907 5907 5907 5907 5907 5906 5906 5905 5904 5903 5902 5901 5900 5899 5897 5896 5895 5895 5894 5892 5891 5889 5888 5888 5887 5887 5886 5886 5887 5887 5888 5890 5890 5887 5886 5887 5888 5889 5891 5892 5892 5893 5893 5893 5894 5894 5894 5894 5894 5893 5893 5893 5893 5894 5894 5894 5895 5896 5897 5898 5899 5901 5901 5901 5902 5902 5903 5904 5905 5904 5904 5905
5902 5902 5902 5903 5903 5904 5904 5905 5905 5906 5906 5906 5907 5907 5907 5907 5907 5907 5907 5907 5906 5906 5905 5904 5904 5903 5902 5900 5899 5898 5896 5895 5894 5893 5892 5891 5889 5888 5887 5886 5886 5885 5885 5884 5884 5885 5886 5887 5885 5883 5884 5886 5887 5887 5888 5890 5891 5891 5891 5892 5893 5893 5893 5893 5893 5892 5892 5892 5892 5893 5893 5894 5894 5895 5896 5896 5898 5899 5900 5901 5901 5902 5903 5903 5904 5904 5904 5904
5900 5901 5901 5902 5903 5903 5904 5904 5904 5905 5905 5906 5906 5907 5907 5907 5906 5906 5906 5906 5905 5905 5904 5903 5903 5902 5901 5900 5899 5897 5895 5894 5893 5891 5890 5889 5888 5887 5886 5886 5885 5885 5883 5882 5882 5883 5884 5882 5881 5881 5882 5884 5885 5885 5887 5888 5889 5890 5890 5891 5892 5892 5891 5891 5891 5891 5891 5891 5891 5892 5893 5893 5893 5894 5894 5895 5896 5897 5898 5899 5900 5901 5901 5902 5903 5904 5904 5905
5899 5900 5901 5901 5902 5903 5903 5903 5904 5904 5905 5905 5906 5906 5906 5906 5906 5906 5905 5905 5904 5904 5903 5903 5902 5902 5901 5900 5898 5897 5895 5893 5892 5890 5889 5888 5887 5886 5885 5884 5884 5884 5882 5881 5880 5881 5880 5879 5879 5880 5881 5882 5883 5884 5886 5887 5888 5889 5890 5891 5891 5890 5890 5890 5890 5890 5891 5891 5890 5891 5892 5892 5893 5893 5893 5894 5895 5896 5897 5898 5899 5899 5900 5901 5902 5903 5904 5904
5898 5899 5900 5900 5901 5902 5902 5903 5903 5904 5904 5905 5905 5905 5906 5905 5905 5905 5904 5904 5903 5903 5903 5902 5901 5900 5900 5899 5898 5896 5895 5893 5891 5889 5888 5887 5886 5885 5884 5883 5883 5882 5881 5880 5879 5879 5877 5877 5878 5879 5879 5879 5881 5883 5884 5885 5885 5887 5889 5889 5889 5889 5889 5889 5889 5889 5890 5890 5889 5890 5891 5892 5892 5892 5892 5893 5894 5895 5896 5897 5897 5898 5898 5899 5901 5902 5903 5903
5897 5898 5899 5900 5900 5901 5901 5902 5903 5904 5904 5904 5905 5905 5905 5905 5904 5904 5903 5903 5902 5902 5902 5901 5900 5900 5899 5898 5897 5896 5894 5892 5890 5889 5887 5887 5885 5884 5883 5881 5881 5880 5879 5878 5877 5877 5876 5876 5876 5876 5876 5877 5879 5882 5882 5881 5883 5885 5887 5886 5886 5887 5888 5888 5888 5888 5888 5888 5888 5889 5890 5891 5891 5891 5891 5892 5893 5894 5894 5895 5896 5896 5897 5897 5898 5899 5901 5902
5896 5897 5898 5899 5899 5900 5901 5901 5902 5903 5904 5904 5904 5904 5904 5904 5904 5903 5903 5902 5901 5902 5901 5901 5900 5899 5898 5897 5896 5895 5893 5892 5889 5888 5886 5885 5884 5883 5882 5880 5879 5879 5878 5876 5875 5875 5875 5875 5874 5874 5875 5876 5878 5880 5879 5878 5882 5884 5884 5883 5884 5885 5885 5886 5886 5886 5886 5886 5887 5888 5888 5889 5890 5890 5890 5891 5892 5892 5893 5893 5894 5895 5895 5896 5896 5897 5898 5900
5895 5896 5897 5898 5898 5899 5900 5901 5902 5902 5903 5903 5903 5903 5903 5903 5903 5903 5902 5901 5901 5901 5901 5900 5899 5898 5897 5896 5895 5894 5893 5891 5888 5887 5885 5884 5882 5881 5880 5879 5878 5877 5877 5875 5874 5874 5873 5873 5873 5873 5874 5875 5877 5878 5877 5877 5880 5882 5881 5882 5883 5883 5884 5884 5885 5885 5884 5884 5886 5887 5887 5887 5889 5889 5889 5890 5891 5891 5892 5892 5893 5893 5894 5895 5895 5896 5897 5898
5894 5895 5896 5897 5897 5898 5899 5900 5901 5902 5902 5902 5903 5903 5903 5902 5902 5902 5901 5901 5900 5900 5900 5899 5897 5897 5896 5895 5894 5892 5891 5889 5888 5886 5883 5882 5881 5879 5878 5877 5877 5876 5876 5875 5874 5873 5872 5872 5872 5872 5872 5873 5875 5876 5876 5876 5878 5880 5880 5881 5881 5881 5882 5883 5883 5883 5882 5883 5885 5887 5886 5886 5887 5888 5888 5889 5889 5890 5890 5891 5891 5892 5892 5893 5894 5894 5895 5896
5893 5894 5895 5896 5897 5898 5899 5900 5900 5901 5901 5902 5902 5902 5902 5902 5901 5901 5900 5900 5900 5899 5900 5899 5897 5896 5895 5893 5892 5891 5889 5888 5886 5884 5883 5881 5879 5878 5877 5876 5875 5874 5874 5874 5873 5872 5871 5870 5870 5870 5871 5871 5873 5875 5875 5875 5876 5878 5878 5879 5879 5880 5880 5880 5881 5881 5881 5882 5885 5886 5885 5885 5886 5887 5887 5888 5888 5889 5889 5890 5890 5890 5891 5892 5893 5893 5894 5895
5892 5893 5894 5895 5896 5897 5898 5899 5900 5900 5901 5901 5901 5901 5901 5901 5901 5900 5900 5899 5899 5899 5898 5898 5896 5895 5893 5892 5891 5889 5888 5886 5885 5883 5882 5880 5878 5877 5876 5875 5874 5873 5872 5872 5872 5871 5870 5869 5869 5869 5869 5870 5871 5873 5874 5874 5875 5876 5877 5877 5877 5878 5878 5878 5879 5879 5880 5881 5883 5884 5883 5884 5886 5886 5887 5887 5887 5888 5888 5889 5889 5889 5890 5890 5891 5892 5892 5893
5891 5892 5893 5894 5895 5896 5897 5898 5899 5899 5900 5900 5900 5900 5900 5900 5899 5899 5899 5898 5898 5897 5897 5896 5895 5893 5892 5891 5889 5888 5886 5885 5883 5882 5880 5878 5877 5875 5874 5873 5872 5872 5871 5870 5870 5870 5869 5868 5868 5868 5868 5868 5870 5871 5872 5873 5873 5874 5875 5875 5876 5876 5876 5877 5877 5878 5879 5880 5882 5882 5881 5883 5885 5886 5886 5886 5886 5886 5887 5888 5888 5889 5889 5889 5889 5890 5891 5892
5890 5891 5892 5893 5894 5895 5896 5897 5898 5898 5898 5898 5898 5898 5898 5898 5898 5898 5897 5897 5897 5896 5895 5894 5893 5892 5890 5889 5887 5886 5885 5884 5882 5880 5879 5877 5876 5874 5872 5871 5870 5870 5870 5869 5868 5869 5868 5867 5867 5867 5867 5867 5868 5869 5870 5871 5871 5872 5873 5873 5874 5874 5874 5875 5876 5876 5877 5878 5879 5880 5880 5882 5883 5884 5884 5885 5885 5886 5886 5886 5888 5889 5889 5889 5889 5889 5889 5890
5889 5890 5891 5892 5893 5894 5895 5896 5897 5897 5897 5897 5897 5897 5897 5897 5897 5896 5896 5895 5895 5894 5893 5892 5891 5890 5889 5887 5886 5885 5883 5882 5881 5879 5878 5876 5874 5873 5871 5870 5868 5867 5868 5867 5867 5867 5867 5866 5865 5866 5866 5865 5866 5867 5867 5869 5870 5870 5870 5871 5872 5872 5873 5874 5874 5875 5875 5876 5877 5877 5878 5880 5882 5882 5883 5884 5884 5885 5885 5886 5887 5888 5888 5888 5888 5888 5888 5889
5888 5889 5890 5891 5892 5893 5894 5895 5895 5896 5896 5896 5896 5896 5896 5896 5895 5895 5894 5894 5893 5893 5892 5890 5889 5889 5888 5886 5884 5883 5882 5881 5879 5878 5876 5874 5873 5871 5869 5868 5866 5865 5865 5865 5865 5865 5865 5865 5864 5864 5864 5863 5864 5864 5864 5866 5867 5867 5868 5870 5870 5870 5872 5872 5873 5874 5874 5875 5876 5876 5877 5879 5880 5881 5882 5882 5883 5884 5884 5885 5886 5887 5887 5887 5887 5887 5887 5887
5887 5888 5889 5890 5892 5893 5893 5894 5894 5895 5895 5895 5895 5895 5894 5894 5893 5893 5893 5893 5892 5891 5890 5889 5888 5887 5886 5885 5883 5882 5881 5879 5878 5876 5874 5872 5871 5869 5868 5866 5865 5863 5862 5862 5862 5862 5862 5863 5862 5862 5862 5861 5861 5862 5861 5862 5864 5865 5866 5867 5868 5869 5870 5870 5871 5873 5873 5874 5874 5875 5876 5878 5879 5880 5881 5881 5882 5882 5883 5884 5886 5887 5886 5886 5886 5886 5886 5887
5886 5887 5888 5889 5891 5891 5892 5893 5893 5893 5893 5894 5894 5893 5893 5892 5892 5892 5892 5892 5890 5889 5888 5887 5887 5886 5885 5884 5882 5881 5879 5878 5876 5874 5872 5870 5868 5867 5866 5864 5863 5861 5859 5860 5860 5859 5859 5860 5859 5859 5859 5859 5859 5859 5859 5859 5860 5862 5863 5864 5865 5866 5867 5867 5869 5871 5871 5872 5873 5873 5874 5876 5878 5879 5880 5880 5881 5881 5882 5883 5885 5885 5885 5885 5885 5885 5885 5886
5885 5886 5887 5888 5889 5890 5891 5892 5892 5892 5892 5892 5892 5892 5891 5891 5890 5890 5891 5891 5889 5888 5887 5886 5885 5885 5884 5882 5881 5880 5878 5876 5874 5873 5870 5868 5867 5865 5864 5862 5861 5859 5857 5857 5856 5856 5856 5856 5856 5857 5857 5857 5856 5856 5856 5856 5857 5858 5860 5861 5862 5864 5864 5865 5866 5868 5870 5870 5871 5871 5873 5875 5877 5878 5879 5879 5879 5880 5881 5882 5883 5883 5883 5884 5884 5884 5884 5885
5884 5885 5886 5887 5888 5889 5889 5890 5891 5891 5891 5891 5891 5891 5890 5889 5889 5890 5890 5889 5888 5887 5886 5885 5884 5883 5882 5881 5880 5878 5877 5875 5873 5871 5868 5867 5865 5863 5861 5860 5858 5857 5856 5854 5853 5853 5852 5852 5853 5854 5854 5854 5854 5854 5854 5854 5854 5855 5856 5857 5859 5861 5862 5863 5865 5866 5868 5868 5869 5869 5871 5873 5876 5877 5877 5878 5878 5879 5879 5880 5881 5881 5883 5883 5883 5883 5883 5883
5883 5884 5885 5886 5887 5887 5888 5888 5889 5889 5890 5890 5890 5889 5889 5888 5888 5888 5888 5887 5886 5885 5884 5883 5882 5881 5880 5879 5878 5876 5875 5873 5871 5869 5867 5865 5863 5860 5859 5857 5856 5854 5853 5851 5850 5850 5849 5849 5849 5850 5851 5851 5850 5851 5851 5852 5852 5852 5853 5854 5856 5858 5859 5860 5862 5864 5865 5866 5866 5867 5869 5872 5874 5875 5876 5877 5877 5877 5878 5879 5880 5881 5882 5882 5882 5882 5882 5882
5882 5883 5884 5885 5885 5885 5886 5886 5887 5888 5888 5888 5888 5887 5887 5886 5886 5886 5885 5885 5884 5884 5883 5882 5880 5879 5878 5876 5875 5874 5872 5870 5869 5867 5865 5863 5860 5858 5856 5854 5852 5851 5850 5849 5847 5846 5846 5845 5845 5846 5847 5847 5847 5848 5849 5849 5849 5850 5851 5852 5853 5855 5857 5857 5858 5860 5862 5863 5864 5865 5868 5871 5873 5874 5874 5875 5875 5875 5876 5878 5880 5881 5881 5881 5881 5881 5881 5881
5880 5882 5883 5883 5883 5883 5884 5885 5885 5886 5887 5886 5886 5885 5885 5884 5884 5884 5883 5882 5882 5882 5881 5880 5878 5877 5876 5874 5873 5871 5870 5868 5866 5864 5862 5860 5858 5856 5853 5851 5849 5848 5847 5846 5845 5843 5842 5842 5842 5843 5843 5843 5843 5845 5846 5846 5846 5847 5849 5850 5851 5852 5854 5854 5856 5858 5859 5861 5863 5864 5866 5870 5872 5872 5872 5873 5874 5874 5875 5878 5879 5880 5880 5880 5880 5880 5880 5880
5879 5880 5881 5881 5882 5882 5882 5883 5884 5885 5885 5885 5884 5884 5883 5883 5882 5881 5880 5880 5880 5879 5878 5877 5876 5875 5874 5872 5871 5869 5867 5865 5863 5861 5859 5857 5855 5853 5851 5848 5847 5845 5845 5844 5842 5841 5839 5839 5840 5840 5840 5840 5840 5842 5843 5843 5843 5844 5846 5848 5849 5850 5852 5853 5854 5856 5857 5860 5862 5862 5865 5868 5870 5870 5870 5871 5872 5872 5873 5875 5877 5877 5878 5879 5879 5879 5879 5879
5878 5879 5879 5880 5880 5880 5881 5882 5883 5883 5882 5882 5882 5882 5882 5882 5881 5880 5878 5878 5877 5877 5875 5874 5874 5873 5871 5870 5868 5867 5865 5863 5861 5859 5857 5854 5852 5850 5848 5846 5844 5842 5842 5841 5839 5838 5837 5836 5837 5837 5837 5837 5837 5838 5839 5840 5840 5842 5843 5845 5847 5848 5850 5851 5853 5854 5855 5858 5859 5861 5864 5867 5868 5868 5867 5868 5869 5870 5871 5873 5875 5875 5876 5877 5877 5877 5877 5877
5876 5877 5878 5878 5878 5879 5880 5880 5880 5880 5880 5880 5880 5880 5880 5880 5880 5878 5877 5877 5876 5875 5873 5873 5872 5871 5869 5868 5866 5865 5863 5861 5859 5856 5854 5851 5849 5847 5845 5843 5841 5840 5838 5837 5836 5835 5834 5834 5834 5834 5834 5834 5834 5835 5835 5836 5838 5839 5840 5842 5844 5845 5847 5848 5850 5852 5854 5855 5857 5859 5862 5865 5866 5866 5866 5866 5867 5867 5869 5871 5873 5874 5874 5875 5876 5876 5876 5876
5875 5876 5876 5876 5877 5877 5877 5878 5878 5878 5878 5879 5879 5879 5878 5878 5877 5877 5876 5875 5874 5873 5872 5872 5870 5869 5867 5866 5864 5862 5860 5858 5856 5854 5852 5849 5846 5844 5842 5840 5838 5837 5836 5834 5833 5832 5832 5831 5832 5832 5832 5832 5832 5832 5832 5833 5835 5836 5838 5840 5841 5842 5842 5844 5846 5849 5850 5853 5856 5858 5860 5862 5864 5865 5865 5865 5865 5865 5867 5869 5871 5872 5873 5874 5874 5874 5875 5875
5873 5874 5875 5875 5875 5875 5874 5875 5875 5876 5876 5877 5877 5877 5876 5875 5875 5875 5874 5873 5871 5870 5870 5869 5868 5867 5865 5864 5862 5860 5858 5856 5854 5852 5849 5846 5843 5841 5839 5837 5836 5835 5833 5832 5830 5830 5829 5829 5829 5829 5829 5829 5829 5829 5829 5830 5832 5833 5835 5837 5838 5838 5838 5839 5843 5845 5848 5851 5854 5856 5858 5860 5862 5863 5863 5863 5863 5863 5865 5867 5869 5871 5872 5872 5872 5873 5873 5874
5870 5872 5873 5873 5873 5873 5873 5872 5873 5873 5874 5874 5875 5875 5874 5873 5874 5873 5872 5871 5869 5868 5868 5867 5865 5864 5863 5861 5859 5858 5856 5854 5851 5849 5847 5844 5842 5840 5838 5835 5834 5833 5831 5830 5828 5827 5827 5826 5826 5826 5826 5826 5826 5826 5827 5828 5829 5830 5832 5834 5836 5836 5835 5836 5838 5841 5844 5849 5852 5855 5856 5858 5859 5860 5860 5860 5861 5862 5863 5866 5868 5869 5870 5871 5870 5871 5871 5872
5868 5869 5870 5871 5871 5871 5871 5871 5871 5871 5872 5872 5872 5872 5871 5871 5871 5871 5870 5868 5867 5866 5865 5864 5863 5862 5861 5859 5857 5855 5853 5852 5849 5847 5844 5842 5840 5838 5836 5834 5832 5831 5829 5828 5827 5825 5824 5823 5824 5824 5823 5823 5823 5823 5824 5825 5826 5827 5829 5831 5833 5833 5832 5833 5835 5837 5841 5846 5850 5853 5855 5856 5857 5858 5858 5858 5859 5861 5862 5865 5866 5867 5868 5869 5868 5868 5869 5870
5866 5867 5868 5868 5869 5869 5870 5870 5870 5870 5870 5870 5869 5869 5868 5869 5869 5868 5867 5866 5865 5864 5863 5862 5861 5860 5858 5857 5855 5853 5851 5849 5847 5844 5842 5839 5837 5835 5834 5832 5830 5828 5826 5825 5824 5823 5822 5821 5821 5821 5821 5821 5821 5821 5821 5823 5824 5824 5826 5828 5830 5830 5830 5831 5834 5837 5840 5844 5848 5851 5853 5854 5855 5856 5857 5857 5858 5859 5861 5863 5865 5866 5867 5867 5867 5867 5868 5869
5864 5865 5866 5866 5867 5867 5868 5868 5868 5868 5867 5867 5867 5867 5866 5866 5866 5866 5865 5864 5863 5862 5861 5859 5859 5857 5856 5854 5853 5851 5849 5847 5844 5841 5839 5837 5835 5833 5831 5830 5828 5826 5824 5822 5821 5820 5819 5818 5818 5818 5818 5818 5818 5818 5819 5820 5821 5822 5824 5826 5827 5828 5829 5831 5834 5837 5839 5842 5845 5849 5851 5852 5853 5854 5855 5856 5857 5858 5860 5862 5864 5865 5866 5867 5868 5868 5869 5869